Weather History for Oroville, CA

Change the Weather History Date:

Thursday, August 15, 2013

  Actual Average Record
Temperature  
Mean Temperature 80 °F -  
Max Temperature 97 °F 93 °F 108 °F (1967)
Min Temperature 64 °F 59 °F 51 °F (1990)
Cooling Degree Days 15    
Growing Degree Days 30 (Base 50)    
Moisture  
Dew Point 53 °F    
Average Humidity 44    
Maximum Humidity 68    
Minimum Humidity 20    
Precipitation  
Precipitation 0.00 in - - ()
Sea Level Pressure  
Sea Level Pressure 29.90 in    
Wind  
Wind Speed 6 mph (SSE)    
Max Wind Speed 12 mph    
Max Gust Speed -    
Visibility 10 miles    
Events      
Averages and records for this station are not official NWS values.
T = Trace of Precipitation, MM = Missing Value Source: NWS Daily Summary

Daily Weather History Graph

Daily Weather History Graph

Search for Another Location

Airport:

Trip Planner

Search our weather history database for the weather conditions in past years. The results will help you decide how hot, cold, wet, or windy it might be!

Date:

Astronomy

Aug. 15, 2013 Rise Set
Actual Time 6:19 AM PDT 8:01 PM PDT
Civil Twilight 5:50 AM PDT 8:30 PM PDT
Nautical Twilight 5:15 AM PDT 9:05 PM PDT
Astronomical Twilight 4:38 AM PDT 9:41 PM PDT
Moon 3:24 PM PDT (8/15) 12:33 AM PDT (8/15)
Length of Visible Light 14h 39m
Length of Day
13h 42m
Waxing Gibbous, 65% of the Moon is Illuminated
Aug 15
Waxing Gibbous
Aug 20
Full
Aug 28
Last Quarter
Sep 5
New
Sep 12
First Quarter

Hourly Weather History & Observations

Time (PDT) Temp. Heat Index Dew Point Humidity Pressure Visibility Wind Dir Wind Speed Gust Speed Precip Events Conditions
12:53 AM 72.0 °F - 51.1 °F 48% 29.87 in 10.0 mi South 5.8 mph - N/A   Clear
1:53 AM 69.1 °F - 53.1 °F 57% 29.87 in 10.0 mi South 5.8 mph - N/A   Clear
2:53 AM 66.9 °F - 54.0 °F 63% 29.88 in 10.0 mi SSE 6.9 mph - N/A   Clear
3:53 AM 66.0 °F - 54.0 °F 65% 29.88 in 10.0 mi SSE 4.6 mph - N/A   Clear
4:53 AM 66.0 °F - 55.0 °F 68% 29.89 in 10.0 mi ESE 4.6 mph - N/A   Clear
5:53 AM 64.9 °F - 54.0 °F 68% 29.90 in 10.0 mi ESE 5.8 mph - N/A   Clear
6:53 AM 64.9 °F - 54.0 °F 68% 29.92 in 10.0 mi ESE 4.6 mph - N/A   Clear
7:53 AM 68.0 °F - 57.0 °F 68% 29.93 in 10.0 mi SE 4.6 mph - N/A   Clear
8:53 AM 71.1 °F - 57.0 °F 61% 29.95 in 10.0 mi SE 5.8 mph - N/A   Clear
9:53 AM 75.9 °F - 55.0 °F 48% 29.94 in 10.0 mi Variable 3.5 mph - N/A   Clear
10:53 AM 79.0 °F - 55.9 °F 45% 29.94 in - West 3.5 mph - N/A   Unknown
11:53 AM 82.9 °F 82.1 °F 55.9 °F 39% 29.94 in 10.0 mi SW 4.6 mph - N/A   Clear
12:53 PM 86.0 °F 84.2 °F 54.0 °F 33% 29.93 in 8.0 mi Calm Calm - N/A   Clear
1:53 PM 90.0 °F 87.5 °F 53.1 °F 28% 29.91 in 8.0 mi Variable 5.8 mph - N/A   Clear
2:53 PM 93.9 °F - 50.0 °F 22% 29.90 in 10.0 mi South 8.1 mph - N/A   Clear
3:53 PM 95.0 °F - 48.0 °F 20% 29.88 in 10.0 mi Variable 6.9 mph - N/A   Clear
4:53 PM 96.1 °F - 51.1 °F 22% 29.87 in 10.0 mi South 8.1 mph - N/A   Clear
5:53 PM 95.0 °F - 51.1 °F 22% 29.85 in 10.0 mi South 10.4 mph - N/A   Clear
6:53 PM 93.0 °F - 48.9 °F 22% 29.84 in 10.0 mi SSE 11.5 mph - N/A   Clear
7:53 PM 88.0 °F 85.7 °F 53.1 °F 30% 29.85 in 10.0 mi SSE 9.2 mph - N/A   Clear
8:53 PM 84.0 °F - 50.0 °F 31% 29.86 in 10.0 mi SE 6.9 mph - N/A   Clear
10:53 PM 80.1 °F - 51.1 °F 36% 29.89 in 10.0 mi SE 8.1 mph - N/A   Clear
11:53 PM 75.0 °F - 51.1 °F 43% 29.90 in 10.0 mi SE 8.1 mph - N/A   Clear